Regional Weather Roundup
Issued by NWS

Home | Current Version | Previous Version | Text Only | Print | Product List | Glossary On
Versions: 1 2 3 4 5 6 7 8 9 10 11 12 13 14 15 16 17 18 19 20 21 22 23 24 25 26 27 28 29 30 31 32 33 34 35 36 37 38 39 40 41 42 43 44 45 46 47 48 49 50
000
ASUS43 KLSX 192007
RWRMO

WEATHER SUMMARY FOR MISSOURI
NATIONAL WEATHER SERVICE SPRINGFIELD MO
200 PM CST SUN FEB 19 2017

NOTE: "FAIR" INDICATES FEW OR NO CLOUDS BELOW 12,000 FEET WITH NO
       SIGNIFICANT WEATHER AND/OR OBSTRUCTIONS TO VISIBILITY.
       CURRENT SKY AND/OR WEATHER CONDITIONS ARE NOT AVAILABLE FOR
       CHILLICOTHE AND FARMINGTON.

MOZ001>031-035>038-043-044-053-054-192100-
...NORTHERN AND WESTERN MISSOURI...

CITY           SKY/WX    TMP DP  RH WIND       PRES   REMARKS
KANSAS CTY INT PTSUNNY   72  53  51 S15G21    29.90F
KANSAS C DTWN  SUNNY     73  53  49 S9        29.89F
LEE`S SUMMIT   SUNNY     72  54  53 S9        29.92F
ST JOSEPH      MOSUNNY   71  53  52 S12G22    29.89F
CHILLICOTHE      N/A     72  51  47 S9G21     29.94F
KIRKSVILLE     MOSUNNY   72  48  42 S10       29.97F

$$
MOZ066>068-077>081-088>096-101>105-192100-
...SOUTHWEST MISSOURI...

CITY           SKY/WX    TMP DP  RH WIND       PRES   REMARKS
SPRINGFIELD    SUNNY     71  56  58 S13       29.96F
JOPLIN         SUNNY     74  56  53 S9        29.94F
BRANSON        PTSUNNY   73  57  56 SE14      29.99F

$$
MOZ032>034-039>042-045>050-055>058-069>072-192100-
...CENTRAL MISSOURI...

CITY           SKY/WX    TMP DP  RH WIND       PRES   REMARKS
COLUMBIA       SUNNY     72  49  44 S10       29.98F
JEFFERSON CITY SUNNY     74  49  41 SE10      29.97F
ROLLA          SUNNY     75  46  35 S12       29.98F
SEDALIA        SUNNY     76  47  35 SE15G21   29.96F
WHITEMAN AFB   SUNNY     75  47  36 S13       29.93F
WARRENSBURG    SUNNY     73  46  38 SE12      29.93F
OSAGE BEACH    SUNNY     76  47  35 S9G21     29.97F

$$
MOZ051-052-059>065-192100-
...EAST CENTRAL MISSOURI...

CITY           SKY/WX    TMP DP  RH WIND       PRES   REMARKS
ST LOUIS INTL  MOSUNNY   71  51  49 VRB7      30.04S
SPIRIT OF STL  PTSUNNY   73  47  39 S7        30.02S
ST CHARLES     SUNNY     71  52  50 E13       30.02F

$$
MOZ072>076-082>087-097>100-106>115-192100-
...SOUTH CENTRAL AND SOUTHEAST MISSOURI...

CITY           SKY/WX    TMP DP  RH WIND       PRES   REMARKS
CAPE GIRARDEAU CLOUDY    58  53  84 VRB6      30.08F
FARMINGTON     SUNNY     71  50  47 S10       30.04F
POPLAR BLUFF   SUNNY     64  58  80 S3        30.06F
WEST PLAINS    CLOUDY    64  56  75 S9        30.06F

$$



USA.gov is the U.S. government's official web portal to all federal, state and local government web resources and services.